User: anonymous   Login
Location: Meanaryar
(48.4161°N, 4.7315°W)
Time: 03:19:04
(UTC+00:00)
Language:

Lacrosse 4 Rocket - Orbit

View from above orbital plane
View from above orbital plane
View from above satellite
View from above satellite

Ground track
Ground track

The orbit data is extracted from the following two-line orbital elements,

1 26474U 00047B   20332.78938868 +.00000419 +00000-0 +47054-4 0  9999
2 26474 067.9940 346.0819 0054730 012.7583 347.4929 14.96026370103679
Epoch (UTC): 27 November 2020 18:56:43
Eccentricity: 0.0054730
inclination: 67.9940°
perigee height: 541 km
apogee height: 617 km
right ascension of ascending node: 346.0819°
argument of perigee: 12.7583°
revolutions per day: 14.96026370
mean anomaly at epoch: 347.4929°
orbit number at epoch: 10367

The dashed part of the orbit path shows where the satellite is in the earth's shadow,  

DLR